Location: �terpigny
(49.8910°N, 2.9249°E)
Time: 10:55:59
(UTC+00:00)

Cosmos 1844 Rocket - Pass Details

Date: 24 October 2021
Orbit: 826 x 843 km, 71.0° (Epoch: 01 December)

Event Time Altitude Azimuth Distance (km) Brightness Sun altitude
Rises 19:02:59 0° 327° (NNW) 3,377 6.4 -23.7°
Reaches altitude 10° 19:05:29 10° 322° (NW) 2,438 5.7 -24.1°
Maximum altitude 19:10:50 49° 250° (WSW) 1,060 3.5 -24.9°
Enters shadow 19:14:59 16° 181° (S) 2,006 4.5 -25.6°
